| time (UTC) | temp C | wind direction | speed KPH | gust KPH | rain 1hr cm | rain 24hr cm | rain mn cm | humidity % | barometer mb |
| 20260507090212 | 15 | 135 | 4.8 | 0.0 | 0.00 | 0.00 | 0.00 | 57 | 1010.7 |
| 20260507085909 | 15 | 135 | 4.8 | 0.0 | 0.00 | 0.00 | 0.00 | 57 | 1010.6 |
| 20260507085711 | 15 | 90 | 3.2 | 0.0 | 0.00 | 0.00 | 0.00 | 56 | 1010.6 |
| 20260507085511 | 15 | 158 | 4.8 | 0.0 | 0.00 | 0.00 | 0.00 | 55 | 1010.6 |
| 20260507085309 | 15 | 112 | 9.7 | 0.0 | 0.00 | 0.00 | 0.00 | 55 | 1010.7 |
| 20260507085109 | 16 | 112 | 9.7 | 0.0 | 0.00 | 0.00 | 0.00 | 54 | 1010.7 |
| 20260507084909 | 16 | 112 | 9.7 | 0.0 | 0.00 | 0.00 | 0.00 | 54 | 1010.7 |
| 20260507084709 | 16 | 112 | 3.2 | 0.0 | 0.00 | 0.00 | 0.00 | 54 | 1010.6 |
| 20260507084509 | 16 | 112 | 4.8 | 0.0 | 0.00 | 0.00 | 0.00 | 55 | 1010.6 |
| 20260507084306 | 16 | 112 | 4.8 | 0.0 | 0.00 | 0.00 | 0.00 | 55 | 1010.6 |
| 20260507084206 | 16 | 112 | 4.8 | 0.0 | 0.00 | 0.00 | 0.00 | 55 | 1010.6 |
| 20260507084011 | 16 | 112 | 4.8 | 0.0 | 0.00 | 0.00 | 0.00 | 55 | 1010.5 |
| 20260507083811 | 16 | 112 | 4.8 | 0.0 | 0.00 | 0.00 | 0.00 | 55 | 1010.5 |
| 20260507083612 | 16 | 135 | 9.7 | 0.0 | 0.00 | 0.00 | 0.00 | 57 | 1010.5 |
| 20260507083409 | 15 | 68 | 8.0 | 0.0 | 0.00 | 0.00 | 0.00 | 57 | 1010.4 |
| 20260507083211 | 15 | 45 | 0.0 | 0.0 | 0.00 | 0.00 | 0.00 | 58 | 1010.4 |
| 20260507083013 | 15 | 112 | 1.6 | 0.0 | 0.00 | 0.00 | 0.00 | 58 | 1010.4 |
| 20260507082707 | 15 | 112 | 4.8 | 0.0 | 0.00 | 0.00 | 0.00 | 58 | 1010.4 |
| 20260507082510 | 15 | 112 | 4.8 | 0.0 | 0.00 | 0.00 | 0.00 | 58 | 1010.4 |
| 20260507082308 | 15 | 315 | 138.4 | 0.0 | 0.00 | 0.00 | 0.00 | 58 | 1010.5 |
| 20260507082110 | 15 | 315 | 138.4 | 0.0 | 0.00 | 0.00 | 0.00 | 58 | 1010.4 |
| 20260507081908 | 15 | 112 | 4.8 | 0.0 | 0.00 | 0.00 | 0.00 | 58 | 1010.4 |
| 20260507081713 | 15 | 135 | 9.7 | 0.0 | 0.00 | 0.00 | 0.00 | 58 | 1010.4 |
| 20260507081508 | 15 | 180 | 3.2 | 0.0 | 0.00 | 0.00 | 0.00 | 58 | 1010.4 |
| 20260507081309 | 15 | 135 | 4.8 | 0.0 | 0.00 | 0.00 | 0.00 | 58 | 1010.3 |
| 20260507081113 | 15 | 68 | 3.2 | 0.0 | 0.00 | 0.00 | 0.00 | 58 | 1010.4 |
| 20260507080908 | 14 | 112 | 4.8 | 0.0 | 0.00 | 0.00 | 0.00 | 59 | 1010.2 |
| 20260507080712 | 14 | 135 | 0.0 | 0.0 | 0.00 | 0.00 | 0.00 | 58 | 1010.2 |
| 20260507080512 | 14 | 135 | 0.0 | 0.0 | 0.00 | 0.00 | 0.00 | 58 | 1010.4 |
| 20260507080308 | 14 | 135 | 3.2 | 0.0 | 0.00 | 0.00 | 0.00 | 58 | 1010.3 |
| 20260507080112 | 14 | 135 | 4.8 | 0.0 | 0.00 | 0.00 | 0.00 | 58 | 1010.4 |
| 20260507075909 | 15 | 112 | 1.6 | 0.0 | 0.00 | 0.00 | 0.00 | 58 | 1010.4 |
| 20260507075709 | 15 | 112 | 1.6 | 0.0 | 0.00 | 0.00 | 0.00 | 58 | 1010.4 |
| 20260507075508 | 15 | 112 | 1.6 | 0.0 | 0.00 | 0.00 | 0.00 | 58 | 1010.3 |
| 20260507075316 | 15 | 180 | 3.2 | 0.0 | 0.00 | 0.00 | 0.00 | 57 | 1010.4 |
| 20260507075111 | 15 | 45 | 1.6 | 0.0 | 0.00 | 0.00 | 0.00 | 58 | 1010.3 |
| 20260507074909 | 15 | 45 | 1.6 | 0.0 | 0.00 | 0.00 | 0.00 | 57 | 1010.3 |
| 20260507074708 | 15 | 135 | 6.4 | 0.0 | 0.00 | 0.00 | 0.00 | 57 | 1010.2 |
| 20260507074513 | 15 | 135 | 6.4 | 0.0 | 0.00 | 0.00 | 0.00 | 57 | 1010.2 |
| 20260507074312 | 15 | 112 | 6.4 | 0.0 | 0.00 | 0.00 | 0.00 | 58 | 1010.2 |
| 20260507074112 | 15 | 135 | 1.6 | 0.0 | 0.00 | 0.00 | 0.00 | 59 | 1010.1 |
| 20260507073912 | 16 | 68 | 8.0 | 0.0 | 0.00 | 0.00 | 0.00 | 59 | 1010.2 |
| 20260507073711 | 15 | 68 | 8.0 | 0.0 | 0.00 | 0.00 | 0.00 | 59 | 1010.0 |
| 20260507073509 | 15 | 68 | 3.2 | 0.0 | 0.00 | 0.00 | 0.00 | 60 | 1010.1 |
| 20260507073436 | 15 | 68 | 3.2 | 0.0 | 0.00 | 0.00 | 0.00 | 60 | 1010.1 |
| 20260507072909 | 15 | 68 | 3.2 | 0.0 | 0.00 | 0.00 | 0.00 | 63 | 1010.0 |
| 20260507072709 | 13 | 68 | 1.6 | 0.0 | 0.00 | 0.00 | 0.00 | 65 | 1010.1 |
| 20260507072509 | 13 | 112 | 4.8 | 0.0 | 0.00 | 0.00 | 0.00 | 65 | 1010.0 |
| 20260507072311 | 13 | 90 | 4.8 | 0.0 | 0.00 | 0.00 | 0.00 | 66 | 1010.0 |
| 20260507072108 | 13 | 112 | 4.8 | 0.0 | 0.00 | 0.00 | 0.00 | 66 | 1010.1 |
| 20260507071908 | 13 | 68 | 3.2 | 0.0 | 0.00 | 0.00 | 0.00 | 66 | 1010.0 |
| 20260507071708 | 13 | 135 | 0.0 | 0.0 | 0.00 | 0.00 | 0.00 | 66 | 1010.0 |
| 20260507071511 | 13 | 135 | 1.6 | 0.0 | 0.00 | 0.00 | 0.00 | 66 | 1010.0 |
| 20260507071308 | 13 | 45 | 0.0 | 0.0 | 0.00 | 0.00 | 0.00 | 66 | 1010.0 |
| 20260507071109 | 13 | 135 | 0.0 | 0.0 | 0.00 | 0.00 | 0.00 | 66 | 1010.0 |
| 20260507070911 | 13 | 68 | 0.0 | 0.0 | 0.00 | 0.00 | 0.00 | 66 | 1010.0 |
| 20260507070707 | 13 | 68 | 0.0 | 0.0 | 0.00 | 0.00 | 0.00 | 67 | 1010.0 |
| 20260507070511 | 13 | 68 | 0.0 | 0.0 | 0.00 | 0.00 | 0.00 | 67 | 1010.0 |
| 20260507070209 | 12 | 68 | 0.0 | 0.0 | 0.00 | 0.00 | 0.00 | 67 | 1010.2 |
| 20260507070012 | 12 | 68 | 0.0 | 0.0 | 0.00 | 0.00 | 0.00 | 67 | 1010.1 |
| 20260507065838 | 12 | 68 | 0.0 | 0.0 | 0.00 | 0.00 | 0.00 | 67 | 1010.2 |
| 20260507065611 | 12 | 68 | 0.0 | 0.0 | 0.00 | 0.00 | 0.00 | 68 | 1010.2 |
| 20260507065411 | 12 | 68 | 0.0 | 0.0 | 0.00 | 0.00 | 0.00 | 68 | 1010.1 |
| 20260507065208 | 12 | 68 | 0.0 | 0.0 | 0.00 | 0.00 | 0.00 | 68 | 1010.1 |
| 20260507065109 | 12 | 68 | 0.0 | 0.0 | 0.00 | 0.00 | 0.00 | 68 | 1010.1 |
| 20260507064911 | 12 | 68 | 0.0 | 0.0 | 0.00 | 0.00 | 0.00 | 68 | 1010.1 |
| 20260507064710 | 12 | 68 | 0.0 | 0.0 | 0.00 | 0.00 | 0.00 | 68 | 1010.0 |
| 20260507064510 | 12 | 68 | 0.0 | 0.0 | 0.00 | 0.00 | 0.00 | 68 | 1010.0 |
| 20260507064309 | 12 | 68 | 0.0 | 0.0 | 0.00 | 0.00 | 0.00 | 68 | 1010.1 |
| 20260507064111 | 12 | 68 | 0.0 | 0.0 | 0.00 | 0.00 | 0.00 | 68 | 1010.1 |
| 20260507063908 | 12 | 68 | 0.0 | 0.0 | 0.00 | 0.00 | 0.00 | 68 | 1010.1 |
| 20260507063813 | 12 | 68 | 0.0 | 0.0 | 0.00 | 0.00 | 0.00 | 68 | 1010.1 |
| 20260507063609 | 12 | 68 | 0.0 | 0.0 | 0.00 | 0.00 | 0.00 | 68 | 1010.1 |
| 20260507063408 | 12 | 112 | 0.0 | 0.0 | 0.00 | 0.00 | 0.00 | 68 | 1010.1 |
| 20260507063208 | 12 | 112 | 0.0 | 0.0 | 0.00 | 0.00 | 0.00 | 68 | 1010.1 |
| 20260507063013 | 12 | 112 | 0.0 | 0.0 | 0.00 | 0.00 | 0.00 | 68 | 1010.0 |
| 20260507062813 | 12 | 112 | 0.0 | 0.0 | 0.00 | 0.00 | 0.00 | 68 | 1010.1 |
| 20260507062608 | 12 | 112 | 0.0 | 0.0 | 0.00 | 0.00 | 0.00 | 68 | 1010.2 |
| 20260507062408 | 12 | 68 | 0.0 | 0.0 | 0.00 | 0.00 | 0.00 | 69 | 1010.2 |
| 20260507062311 | 12 | 68 | 0.0 | 0.0 | 0.00 | 0.00 | 0.00 | 69 | 1010.2 |
| 20260507062112 | 12 | 68 | 0.0 | 0.0 | 0.00 | 0.00 | 0.00 | 69 | 1010.2 |
| 20260507061908 | 12 | 68 | 0.0 | 0.0 | 0.00 | 0.00 | 0.00 | 70 | 1010.2 |
| 20260507061710 | 12 | 68 | 0.0 | 0.0 | 0.00 | 0.00 | 0.00 | 72 | 1010.1 |
| 20260507061412 | 12 | 68 | 0.0 | 0.0 | 0.00 | 0.00 | 0.00 | 72 | 1010.1 |
| 20260507061209 | 11 | 68 | 0.0 | 0.0 | 0.00 | 0.00 | 0.00 | 72 | 1010.0 |
| 20260507061012 | 11 | 68 | 0.0 | 0.0 | 0.00 | 0.00 | 0.00 | 72 | 1010.0 |
| 20260507060809 | 11 | 68 | 0.0 | 0.0 | 0.00 | 0.00 | 0.00 | 73 | 1010.0 |
| 20260507060614 | 11 | 68 | 0.0 | 0.0 | 0.00 | 0.00 | 0.00 | 73 | 1010.0 |
| 20260507060409 | 11 | 68 | 0.0 | 0.0 | 0.00 | 0.00 | 0.00 | 73 | 1010.0 |
| 20260507060211 | 11 | 68 | 0.0 | 0.0 | 0.00 | 0.00 | 0.00 | 74 | 1009.9 |
| 20260507060011 | 11 | 68 | 0.0 | 0.0 | 0.00 | 0.00 | 0.00 | 74 | 1009.9 |
| 20260507055808 | 11 | 68 | 0.0 | 0.0 | 0.00 | 0.00 | 0.00 | 75 | 1009.9 |
| 20260507055607 | 10 | 68 | 0.0 | 0.0 | 0.00 | 0.00 | 0.00 | 75 | 1010.0 |
| 20260507055509 | 10 | 68 | 0.0 | 0.0 | 0.00 | 0.00 | 0.00 | 75 | 1010.0 |
| 20260507055310 | 10 | 68 | 0.0 | 0.0 | 0.00 | 0.00 | 0.00 | 76 | 1010.0 |
| 20260507055108 | 10 | 68 | 0.0 | 0.0 | 0.00 | 0.00 | 0.00 | 76 | 1009.9 |
| 20260507054911 | 10 | 68 | 0.0 | 0.0 | 0.00 | 0.00 | 0.00 | 76 | 1009.8 |
| 20260507054708 | 10 | 68 | 0.0 | 0.0 | 0.00 | 0.00 | 0.00 | 76 | 1009.9 |
| 20260507054511 | 10 | 68 | 0.0 | 0.0 | 0.00 | 0.00 | 0.00 | 77 | 1009.9 |
| 20260507054307 | 10 | 90 | 0.0 | 0.0 | 0.00 | 0.00 | 0.00 | 77 | 1009.8 |
| 20260507054209 | 10 | 90 | 0.0 | 0.0 | 0.00 | 0.00 | 0.00 | 77 | 1009.9 |
| 20260507054012 | 10 | 90 | 0.0 | 0.0 | 0.00 | 0.00 | 0.00 | 78 | 1009.8 |
| 20260507053810 | 10 | 90 | 0.0 | 0.0 | 0.00 | 0.00 | 0.00 | 78 | 1009.8 |
| 20260507053608 | 10 | 90 | 0.0 | 0.0 | 0.00 | 0.00 | 0.00 | 78 | 1009.8 |
| 20260507053413 | 10 | 90 | 0.0 | 0.0 | 0.00 | 0.00 | 0.00 | 78 | 1009.8 |
| 20260507053208 | 10 | 90 | 0.0 | 0.0 | 0.00 | 0.00 | 0.00 | 78 | 1009.8 |
| 20260507053011 | 10 | 45 | 0.0 | 0.0 | 0.00 | 0.00 | 0.00 | 78 | 1009.8 |
| 20260507052810 | 10 | 45 | 0.0 | 0.0 | 0.00 | 0.00 | 0.00 | 78 | 1009.7 |
| 20260507052608 | 9 | 45 | 0.0 | 0.0 | 0.00 | 0.00 | 0.00 | 78 | 1009.7 |
| 20260507052410 | 9 | 45 | 0.0 | 0.0 | 0.00 | 0.00 | 0.00 | 79 | 1009.6 |
| 20260507052206 | 9 | 45 | 0.0 | 0.0 | 0.00 | 0.00 | 0.00 | 79 | 1009.7 |
| 20260507052005 | 9 | 45 | 0.0 | 0.0 | 0.00 | 0.00 | 0.00 | 79 | 1009.7 |
| 20260507051710 | 9 | 45 | 0.0 | 0.0 | 0.00 | 0.00 | 0.00 | 79 | 1009.6 |
| 20260507051411 | 9 | 45 | 0.0 | 0.0 | 0.00 | 0.00 | 0.00 | 79 | 1009.6 |
| 20260507051211 | 9 | 45 | 0.0 | 0.0 | 0.00 | 0.00 | 0.00 | 79 | 1009.6 |
| 20260507051011 | 9 | 45 | 0.0 | 0.0 | 0.00 | 0.00 | 0.00 | 79 | 1009.5 |
| 20260507050809 | 9 | 292 | 0.0 | 0.0 | 0.00 | 0.00 | 0.00 | 79 | 1009.5 |
| 20260507050632 | 9 | 292 | 0.0 | 0.0 | 0.00 | 0.00 | 0.00 | 79 | 1009.5 |
| 20260507050407 | 8 | 292 | 0.0 | 0.0 | 0.00 | 0.00 | 0.00 | 79 | 1009.6 |
| 20260507050211 | 8 | 292 | 0.0 | 0.0 | 0.00 | 0.00 | 0.00 | 79 | 1009.5 |
| 20260507045914 | 8 | 292 | 0.0 | 0.0 | 0.00 | 0.00 | 0.00 | 80 | 1009.5 |
| 20260507045706 | 8 | 0 | 0.0 | 0.0 | 0.00 | 0.00 | 0.00 | 80 | 1009.5 |
| 20260507045506 | 8 | 0 | 0.0 | 0.0 | 0.00 | 0.00 | 0.00 | 80 | 1009.4 |
| 20260507045311 | 8 | 0 | 0.0 | 0.0 | 0.00 | 0.00 | 0.00 | 80 | 1009.3 |
| 20260507045113 | 8 | 0 | 0.0 | 0.0 | 0.00 | 0.00 | 0.00 | 80 | 1009.4 |
| 20260507044909 | 8 | 0 | 0.0 | 0.0 | 0.00 | 0.00 | 0.00 | 80 | 1009.4 |
| 20260507044707 | 8 | 0 | 0.0 | 0.0 | 0.00 | 0.00 | 0.00 | 80 | 1009.3 |
| 20260507044510 | 8 | 0 | 0.0 | 0.0 | 0.00 | 0.00 | 0.00 | 80 | 1009.2 |
| 20260507044312 | 8 | 0 | 0.0 | 0.0 | 0.00 | 0.00 | 0.00 | 80 | 1009.3 |
| 20260507044111 | 8 | 0 | 0.0 | 0.0 | 0.00 | 0.00 | 0.00 | 80 | 1009.2 |
| 20260507043908 | 8 | 0 | 0.0 | 0.0 | 0.00 | 0.00 | 0.00 | 80 | 1009.2 |
| 20260507043711 | 8 | 0 | 0.0 | 0.0 | 0.00 | 0.00 | 0.00 | 80 | 1009.3 |
| 20260507043512 | 8 | 0 | 0.0 | 0.0 | 0.00 | 0.00 | 0.00 | 80 | 1009.3 |
| 20260507043311 | 8 | 0 | 0.0 | 0.0 | 0.00 | 0.00 | 0.00 | 80 | 1009.4 |
| 20260507043241 | 8 | 0 | 0.0 | 0.0 | 0.00 | 0.00 | 0.00 | 80 | 1009.3 |
| 20260507043011 | 8 | 292 | 0.0 | 0.0 | 0.00 | 0.00 | 0.00 | 81 | 1009.3 |
| 20260507042807 | 8 | 292 | 0.0 | 0.0 | 0.00 | 0.00 | 0.00 | 81 | 1009.2 |
| 20260507042609 | 8 | 292 | 0.0 | 0.0 | 0.00 | 0.00 | 0.00 | 81 | 1009.2 |
| 20260507042409 | 8 | 292 | 0.0 | 0.0 | 0.00 | 0.00 | 0.00 | 81 | 1009.2 |
| 20260507042213 | 8 | 292 | 0.0 | 0.0 | 0.00 | 0.00 | 0.00 | 81 | 1009.2 |
| 20260507042008 | 7 | 292 | 0.0 | 0.0 | 0.00 | 0.00 | 0.00 | 81 | 1009.2 |
| 20260507041707 | 7 | 292 | 0.0 | 0.0 | 0.00 | 0.00 | 0.00 | 81 | 1009.1 |
| 20260507041507 | 7 | 292 | 0.0 | 0.0 | 0.00 | 0.00 | 0.00 | 81 | 1009.1 |
| 20260507041317 | 7 | 292 | 0.0 | 0.0 | 0.00 | 0.00 | 0.00 | 81 | 1009.1 |
| 20260507041109 | 7 | 292 | 0.0 | 0.0 | 0.00 | 0.00 | 0.00 | 81 | 1009.1 |
| 20260507040909 | 7 | 292 | 0.0 | 0.0 | 0.00 | 0.00 | 0.00 | 81 | 1009.0 |
| 20260507040710 | 7 | 292 | 0.0 | 0.0 | 0.00 | 0.00 | 0.00 | 81 | 1008.9 |
| 20260507040510 | 7 | 292 | 0.0 | 0.0 | 0.00 | 0.00 | 0.00 | 81 | 1009.0 |
| 20260506200212 | 11 | 248 | 0.0 | 0.0 | 0.00 | 0.00 | 0.00 | 57 | 1006.2 |
| 20260506200011 | 11 | 270 | 0.0 | 0.0 | 0.00 | 0.00 | 0.00 | 57 | 1006.2 |
| 20260506195812 | 11 | 270 | 0.0 | 0.0 | 0.00 | 0.00 | 0.00 | 56 | 1006.0 |
| 20260506195611 | 11 | 248 | 0.0 | 0.0 | 0.00 | 0.00 | 0.00 | 55 | 1006.0 |
| 20260506195308 | 11 | 270 | 0.0 | 0.0 | 0.00 | 0.00 | 0.00 | 55 | 1005.9 |
| 20260506195111 | 11 | 270 | 0.0 | 0.0 | 0.00 | 0.00 | 0.00 | 55 | 1005.7 |
| 20260506194907 | 12 | 270 | 0.0 | 0.0 | 0.00 | 0.00 | 0.00 | 55 | 1005.7 |
| 20260506194710 | 12 | 248 | 1.6 | 0.0 | 0.00 | 0.00 | 0.00 | 53 | 1005.7 |
| 20260506194411 | 12 | 248 | 0.0 | 0.0 | 0.00 | 0.00 | 0.00 | 52 | 1005.7 |
| 20260506194211 | 12 | 248 | 3.2 | 0.0 | 0.00 | 0.00 | 0.00 | 50 | 1005.6 |
| 20260506194010 | 13 | 292 | 0.0 | 0.0 | 0.00 | 0.00 | 0.00 | 49 | 1005.6 |
| 20260506193811 | 13 | 135 | 0.0 | 0.0 | 0.00 | 0.00 | 0.00 | 49 | 1005.5 |
| 20260506193609 | 13 | 270 | 0.0 | 0.0 | 0.00 | 0.00 | 0.00 | 49 | 1005.4 |
| 20260506193409 | 13 | 270 | 1.6 | 0.0 | 0.00 | 0.00 | 0.00 | 47 | 1005.3 |
| 20260506193206 | 13 | 292 | 0.0 | 0.0 | 0.00 | 0.00 | 0.00 | 48 | 1005.3 |
| 20260506193005 | 13 | 292 | 0.0 | 0.0 | 0.00 | 0.00 | 0.00 | 48 | 1005.3 |
| 20260506192815 | 13 | 292 | 0.0 | 0.0 | 0.00 | 0.00 | 0.00 | 48 | 1005.2 |
| 20260506192516 | 13 | 225 | 4.8 | 0.0 | 0.00 | 0.00 | 0.00 | 48 | 1005.2 |
| 20260506192309 | 13 | 225 | 8.0 | 0.0 | 0.00 | 0.00 | 0.00 | 48 | 1005.2 |
| 20260506192142 | 12 | 248 | 6.4 | 0.0 | 0.00 | 0.00 | 0.00 | 48 | 1005.3 |
| 20260506191909 | 12 | 225 | 4.8 | 0.0 | 0.00 | 0.00 | 0.00 | 48 | 1005.2 |
| 20260506191712 | 12 | 248 | 4.8 | 0.0 | 0.00 | 0.00 | 0.00 | 50 | 1005.1 |
| 20260506191308 | 12 | 248 | 9.7 | 0.0 | 0.00 | 0.00 | 0.00 | 51 | 1005.0 |
| 20260506191127 | 12 | 248 | 9.7 | 0.0 | 0.00 | 0.00 | 0.00 | 51 | 1005.1 |
| 20260506190907 | 12 | 248 | 4.8 | 0.0 | 0.00 | 0.00 | 0.00 | 51 | 1005.0 |
| 20260506190708 | 12 | 270 | 6.4 | 0.0 | 0.00 | 0.00 | 0.00 | 50 | 1004.9 |
| 20260506190512 | 12 | 270 | 4.8 | 0.0 | 0.00 | 0.00 | 0.00 | 49 | 1004.9 |
| 20260506190308 | 12 | 270 | 4.8 | 0.0 | 0.00 | 0.00 | 0.00 | 51 | 1004.8 |
| 20260506190109 | 12 | 270 | 3.2 | 0.0 | 0.00 | 0.00 | 0.00 | 53 | 1004.8 |
| 20260506185931 | 12 | 248 | 4.8 | 0.0 | 0.00 | 0.00 | 0.00 | 53 | 1004.8 |
| 20260506185611 | 12 | 248 | 9.7 | 0.0 | 0.00 | 0.00 | 0.00 | 53 | 1004.7 |
| 20260506185409 | 12 | 270 | 3.2 | 0.0 | 0.00 | 0.00 | 0.00 | 52 | 1004.7 |
| 20260506185208 | 12 | 248 | 8.0 | 0.0 | 0.00 | 0.00 | 0.00 | 52 | 1004.7 |
| 20260506185015 | 13 | 270 | 4.8 | 0.0 | 0.00 | 0.00 | 0.00 | 52 | 1004.6 |
| 20260506184808 | 13 | 248 | 3.2 | 0.0 | 0.00 | 0.00 | 0.00 | 52 | 1004.6 |
| 20260506184709 | 13 | 248 | 4.8 | 0.0 | 0.00 | 0.00 | 0.00 | 51 | 1004.6 |
| 20260506184409 | 13 | 248 | 8.0 | 0.0 | 0.00 | 0.00 | 0.00 | 51 | 1004.5 |
| 20260506184212 | 13 | 248 | 16.1 | 0.0 | 0.00 | 0.00 | 0.00 | 50 | 1004.4 |
| 20260506184010 | 12 | 248 | 1.6 | 0.0 | 0.00 | 0.00 | 0.00 | 52 | 1004.5 |
| 20260506183849 | 12 | 248 | 1.6 | 0.0 | 0.00 | 0.00 | 0.00 | 52 | 1004.5 |
| 20260506183609 | 12 | 270 | 3.2 | 0.0 | 0.00 | 0.00 | 0.00 | 53 | 1004.4 |
| 20260506183408 | 12 | 248 | 1.6 | 0.0 | 0.00 | 0.00 | 0.00 | 55 | 1004.3 |
| 20260506183206 | 12 | 270 | 0.0 | 0.0 | 0.00 | 0.00 | 0.00 | 56 | 1004.4 |
| 20260506183009 | 13 | 270 | 0.0 | 0.0 | 0.00 | 0.00 | 0.00 | 55 | 1004.3 |
| 20260506182812 | 13 | 248 | 8.0 | 0.0 | 0.00 | 0.00 | 0.00 | 55 | 1004.1 |
| 20260506182611 | 13 | 248 | 4.8 | 0.0 | 0.00 | 0.00 | 0.00 | 54 | 1004.2 |
| 20260506182412 | 12 | 270 | 6.4 | 0.0 | 0.00 | 0.00 | 0.00 | 54 | 1004.3 |
| 20260506182212 | 12 | 248 | 0.0 | 0.0 | 0.00 | 0.00 | 0.00 | 58 | 1004.1 |
| 20260506182006 | 12 | 292 | 1.6 | 0.0 | 0.00 | 0.00 | 0.00 | 59 | 1004.2 |
| 20260506181907 | 12 | 292 | 1.6 | 0.0 | 0.00 | 0.00 | 0.00 | 59 | 1004.1 |
| 20260506181713 | 12 | 270 | 1.6 | 0.0 | 0.00 | 0.00 | 0.00 | 59 | 1004.1 |
| 20260506181409 | 13 | 270 | 0.0 | 0.0 | 0.00 | 0.00 | 0.00 | 59 | 1004.2 |
| 20260506181206 | 13 | 248 | 1.6 | 0.0 | 0.00 | 0.00 | 0.00 | 59 | 1004.1 |
| 20260506181008 | 13 | 270 | 1.6 | 0.0 | 0.00 | 0.00 | 0.00 | 60 | 1004.2 |
| 20260506180841 | 13 | 270 | 4.8 | 0.0 | 0.00 | 0.00 | 0.00 | 60 | 1004.1 |
| 20260506180608 | 13 | 270 | 6.4 | 0.0 | 0.00 | 0.00 | 0.00 | 61 | 1004.1 |
| 20260506180412 | 13 | 270 | 0.0 | 0.0 | 0.00 | 0.00 | 0.00 | 61 | 1004.0 |
| 20260506180207 | 13 | 270 | 3.2 | 0.0 | 0.00 | 0.00 | 0.00 | 61 | 1004.0 |
| 20260506175928 | 13 | 270 | 0.0 | 0.0 | 0.00 | 0.00 | 0.00 | 61 | 1004.0 |
| 20260506175612 | 13 | 270 | 0.0 | 0.0 | 0.00 | 0.00 | 0.00 | 60 | 1004.0 |
| 20260506175410 | 13 | 270 | 0.0 | 0.0 | 0.00 | 0.00 | 0.00 | 61 | 1004.1 |
| 20260506175211 | 13 | 292 | 0.0 | 0.0 | 0.00 | 0.00 | 0.00 | 61 | 1004.0 |
| 20260506174908 | 13 | 248 | 0.0 | 0.0 | 0.00 | 0.00 | 0.00 | 62 | 1004.2 |
| 20260506174707 | 13 | 270 | 0.0 | 0.0 | 0.00 | 0.00 | 0.00 | 61 | 1004.1 |
| 20260506174413 | 13 | 270 | 3.2 | 0.0 | 0.00 | 0.00 | 0.00 | 61 | 1004.0 |
| 20260506174209 | 13 | 270 | 0.0 | 0.0 | 0.00 | 0.00 | 0.00 | 61 | 1004.0 |
| 20260506174012 | 13 | 248 | 0.0 | 0.0 | 0.00 | 0.00 | 0.00 | 61 | 1004.0 |
| 20260506173811 | 13 | 270 | 0.0 | 0.0 | 0.00 | 0.00 | 0.00 | 61 | 1004.0 |
| 20260506173611 | 14 | 248 | 1.6 | 0.0 | 0.00 | 0.00 | 0.00 | 61 | 1004.0 |
| 20260506173420 | 14 | 248 | 1.6 | 0.0 | 0.00 | 0.00 | 0.00 | 61 | 1003.9 |
| 20260506173216 | 14 | 270 | 0.0 | 0.0 | 0.00 | 0.00 | 0.00 | 60 | 1003.9 |
| 20260506173009 | 14 | 248 | 0.0 | 0.0 | 0.00 | 0.00 | 0.00 | 59 | 1003.9 |
| 20260506172810 | 15 | 270 | 0.0 | 0.0 | 0.00 | 0.00 | 0.00 | 59 | 1003.9 |
| 20260506172607 | 15 | 270 | 0.0 | 0.0 | 0.00 | 0.00 | 0.00 | 58 | 1003.8 |
| 20260506172406 | 15 | 270 | 0.0 | 0.0 | 0.00 | 0.00 | 0.00 | 58 | 1003.7 |
| 20260506172308 | 15 | 270 | 0.0 | 0.0 | 0.00 | 0.00 | 0.00 | 58 | 1003.7 |
| 20260506172111 | 15 | 270 | 0.0 | 0.0 | 0.00 | 0.00 | 0.00 | 58 | 1003.7 |
| 20260506171911 | 15 | 270 | 0.0 | 0.0 | 0.00 | 0.00 | 0.00 | 58 | 1003.8 |
| 20260506171709 | 15 | 248 | 0.0 | 0.0 | 0.00 | 0.00 | 0.00 | 57 | 1003.7 |
| 20260506171509 | 15 | 248 | 0.0 | 0.0 | 0.00 | 0.00 | 0.00 | 56 | 1003.7 |
| 20260506171313 | 16 | 248 | 0.0 | 0.0 | 0.00 | 0.00 | 0.00 | 56 | 1003.7 |
| 20260506171111 | 16 | 292 | 0.0 | 0.0 | 0.00 | 0.00 | 0.00 | 54 | 1003.7 |
| 20260506170809 | 16 | 270 | 0.0 | 0.0 | 0.00 | 0.00 | 0.00 | 54 | 1003.6 |
| 20260506170610 | 16 | 270 | 0.0 | 0.0 | 0.00 | 0.00 | 0.00 | 53 | 1003.6 |
| 20260506170410 | 16 | 270 | 0.0 | 0.0 | 0.00 | 0.00 | 0.00 | 48 | 1003.6 |
| 20260506170209 | 16 | 248 | 0.0 | 0.0 | 0.00 | 0.00 | 0.00 | 48 | 1003.5 |
| 20260506165929 | 16 | 248 | 0.0 | 0.0 | 0.00 | 0.00 | 0.00 | 48 | 1003.4 |
| 20260506165607 | 16 | 338 | 9.7 | 0.0 | 0.00 | 0.00 | 0.00 | 48 | 1003.3 |
| 20260506165511 | 16 | 338 | 9.7 | 0.0 | 0.00 | 0.00 | 0.00 | 48 | 1003.4 |
| 20260506165310 | 16 | 338 | 9.7 | 0.0 | 0.00 | 0.00 | 0.00 | 48 | 1003.3 |
| 20260506165112 | 16 | 338 | 9.7 | 0.0 | 0.00 | 0.00 | 0.00 | 49 | 1003.2 |
| 20260506164908 | 16 | 90 | 0.0 | 0.0 | 0.00 | 0.00 | 0.00 | 49 | 1003.2 |
| 20260506164708 | 16 | 292 | 0.0 | 0.0 | 0.00 | 0.00 | 0.00 | 51 | 1003.4 |
| 20260506164508 | 16 | 248 | 0.0 | 0.0 | 0.00 | 0.00 | 0.00 | 51 | 1003.3 |
| 20260506164310 | 16 | 248 | 0.0 | 0.0 | 0.00 | 0.00 | 0.00 | 51 | 1003.3 |
| 20260506164211 | 16 | 270 | 0.0 | 0.0 | 0.00 | 0.00 | 0.00 | 50 | 1003.3 |
| 20260506164016 | 16 | 270 | 0.0 | 0.0 | 0.00 | 0.00 | 0.00 | 50 | 1003.3 |
| 20260506163808 | 16 | 248 | 3.2 | 0.0 | 0.00 | 0.00 | 0.00 | 50 | 1003.3 |
| 20260506163633 | 16 | 248 | 8.0 | 0.0 | 0.00 | 0.00 | 0.00 | 50 | 1003.3 |
| 20260506163210 | 16 | 248 | 4.8 | 0.0 | 0.00 | 0.00 | 0.00 | 49 | 1003.3 |
| 20260506162911 | 16 | 248 | 1.6 | 0.0 | 0.00 | 0.00 | 0.00 | 47 | 1003.3 |
| 20260506162715 | 16 | 248 | 0.0 | 0.0 | 0.00 | 0.00 | 0.00 | 47 | 1003.3 |
| 20260506162512 | 16 | 292 | 3.2 | 0.0 | 0.00 | 0.00 | 0.00 | 48 | 1003.3 |
| 20260506162311 | 17 | 248 | 3.2 | 0.0 | 0.00 | 0.00 | 0.00 | 47 | 1003.4 |
| 20260506162113 | 17 | 248 | 0.0 | 0.0 | 0.00 | 0.00 | 0.00 | 47 | 1003.3 |
| 20260506161908 | 17 | 248 | 0.0 | 0.0 | 0.00 | 0.00 | 0.00 | 49 | 1003.3 |
| 20260506161744 | 17 | 248 | 0.0 | 0.0 | 0.00 | 0.00 | 0.00 | 49 | 1003.4 |
| 20260506161413 | 17 | 315 | 11.3 | 0.0 | 0.00 | 0.00 | 0.00 | 46 | 1003.5 |
| 20260506161209 | 17 | 315 | 11.3 | 0.0 | 0.00 | 0.00 | 0.00 | 46 | 1003.6 |
| 20260506161012 | 17 | 315 | 11.3 | 0.0 | 0.00 | 0.00 | 0.00 | 46 | 1003.6 |
| 20260506160807 | 17 | 315 | 11.3 | 0.0 | 0.00 | 0.00 | 0.00 | 46 | 1003.6 |
| 20260506160611 | 18 | 270 | 0.0 | 0.0 | 0.00 | 0.00 | 0.00 | 46 | 1003.6 |
| 20260506160409 | 18 | 270 | 0.0 | 0.0 | 0.00 | 0.00 | 0.00 | 47 | 1003.6 |
| 20260506160206 | 18 | 270 | 0.0 | 0.0 | 0.00 | 0.00 | 0.00 | 46 | 1003.6 |
| 20260506155929 | 17 | 270 | 4.8 | 0.0 | 0.00 | 0.00 | 0.00 | 46 | 1003.6 |
| 20260506155608 | 17 | 270 | 0.0 | 0.0 | 0.00 | 0.00 | 0.00 | 46 | 1003.6 |
| 20260506155409 | 17 | 270 | 0.0 | 0.0 | 0.00 | 0.00 | 0.00 | 47 | 1003.7 |
| 20260506155208 | 17 | 270 | 0.0 | 0.0 | 0.00 | 0.00 | 0.00 | 46 | 1003.7 |
| 20260506155007 | 18 | 292 | 0.0 | 0.0 | 0.00 | 0.00 | 0.00 | 46 | 1003.7 |
| 20260506154810 | 18 | 292 | 0.0 | 0.0 | 0.00 | 0.00 | 0.00 | 46 | 1003.6 |
| 20260506154508 | 18 | 292 | 0.0 | 0.0 | 0.00 | 0.00 | 0.00 | 46 | 1003.7 |
| 20260506154307 | 18 | 248 | 3.2 | 0.0 | 0.00 | 0.00 | 0.00 | 45 | 1003.8 |
| 20260506154108 | 18 | 248 | 1.6 | 0.0 | 0.00 | 0.00 | 0.00 | 45 | 1003.6 |
| 20260506153908 | 18 | 315 | 0.0 | 0.0 | 0.00 | 0.00 | 0.00 | 45 | 1003.7 |
| 20260506153708 | 18 | 315 | 0.0 | 0.0 | 0.00 | 0.00 | 0.00 | 45 | 1003.6 |
| 20260506153512 | 18 | 225 | 0.0 | 0.0 | 0.00 | 0.00 | 0.00 | 46 | 1003.6 |
| 20260506153311 | 18 | 225 | 0.0 | 0.0 | 0.00 | 0.00 | 0.00 | 46 | 1003.6 |
| 20260506153108 | 18 | 68 | 3.2 | 0.0 | 0.00 | 0.00 | 0.00 | 46 | 1003.7 |
| 20260506152907 | 18 | 112 | 0.0 | 0.0 | 0.00 | 0.00 | 0.00 | 47 | 1003.6 |
| 20260506152710 | 18 | 248 | 0.0 | 0.0 | 0.00 | 0.00 | 0.00 | 47 | 1003.6 |
| 20260506152506 | 18 | 248 | 0.0 | 0.0 | 0.00 | 0.00 | 0.00 | 47 | 1003.7 |
| 20260506152311 | 18 | 248 | 0.0 | 0.0 | 0.00 | 0.00 | 0.00 | 47 | 1003.6 |
| 20260506152111 | 18 | 248 | 0.0 | 0.0 | 0.00 | 0.00 | 0.00 | 48 | 1003.6 |
| 20260506151909 | 18 | 248 | 0.0 | 0.0 | 0.00 | 0.00 | 0.00 | 49 | 1003.6 |
| 20260506151713 | 18 | 248 | 0.0 | 0.0 | 0.00 | 0.00 | 0.00 | 49 | 1003.7 |
| 20260506151411 | 17 | 292 | 9.7 | 0.0 | 0.00 | 0.00 | 0.00 | 52 | 1003.6 |
| 20260506151209 | 17 | 292 | 9.7 | 0.0 | 0.00 | 0.00 | 0.00 | 52 | 1003.6 |
| 20260506151012 | 17 | 292 | 9.7 | 0.0 | 0.00 | 0.00 | 0.00 | 52 | 1003.5 |
| 20260506150807 | 17 | 248 | 0.0 | 0.0 | 0.00 | 0.00 | 0.00 | 52 | 1003.5 |
| 20260506150610 | 17 | 225 | 6.4 | 0.0 | 0.00 | 0.00 | 0.00 | 52 | 1003.5 |
| 20260506150414 | 17 | 225 | 6.4 | 0.0 | 0.00 | 0.00 | 0.00 | 52 | 1003.4 |
| 20260506150206 | 17 | 248 | 3.2 | 0.0 | 0.00 | 0.00 | 0.00 | 49 | 1003.3 |
| 20260506145928 | 17 | 270 | 0.0 | 0.0 | 0.00 | 0.00 | 0.00 | 45 | 1003.3 |
| 20260506145607 | 18 | 180 | 0.0 | 0.0 | 0.00 | 0.00 | 0.00 | 41 | 1003.3 |
| 20260506145408 | 18 | 180 | 0.0 | 0.0 | 0.00 | 0.00 | 0.00 | 41 | 1003.3 |
| 20260506145207 | 18 | 292 | 12.9 | 0.0 | 0.00 | 0.00 | 0.00 | 40 | 1003.1 |
| 20260506145010 | 19 | 248 | 8.0 | 0.0 | 0.00 | 0.00 | 0.00 | 39 | 1003.1 |
| 20260506144914 | 19 | 248 | 8.0 | 0.0 | 0.00 | 0.00 | 0.00 | 39 | 1003.0 |
| 20260506144713 | 19 | 248 | 8.0 | 0.0 | 0.00 | 0.00 | 0.00 | 39 | 1002.8 |
| 20260506144513 | 20 | 270 | 0.0 | 0.0 | 0.00 | 0.00 | 0.00 | 38 | 1002.8 |
| 20260506144313 | 20 | 315 | 3.2 | 0.0 | 0.00 | 0.00 | 0.00 | 38 | 1002.7 |
| 20260506144111 | 20 | 292 | 0.0 | 0.0 | 0.00 | 0.00 | 0.00 | 38 | 1002.5 |
| 20260506143911 | 20 | 0 | 6.4 | 0.0 | 0.00 | 0.00 | 0.00 | 37 | 1002.5 |
| 20260506143714 | 20 | 45 | 4.8 | 0.0 | 0.00 | 0.00 | 0.00 | 37 | 1002.3 |
| 20260506143512 | 20 | 45 | 3.2 | 0.0 | 0.00 | 0.00 | 0.00 | 37 | 1002.3 |
| 20260506143313 | 20 | 68 | 1.6 | 0.0 | 0.00 | 0.00 | 0.00 | 37 | 1002.3 |
| 20260506143113 | 20 | 315 | 8.0 | 0.0 | 0.00 | 0.00 | 0.00 | 36 | 1002.2 |
| 20260506142912 | 21 | 315 | 8.0 | 0.0 | 0.00 | 0.00 | 0.00 | 37 | 1002.2 |
| 20260506142710 | 21 | 338 | 0.0 | 0.0 | 0.00 | 0.00 | 0.00 | 37 | 1002.2 |
| 20260506142508 | 21 | 338 | 0.0 | 0.0 | 0.00 | 0.00 | 0.00 | 37 | 1002.2 |
| 20260506142307 | 21 | 338 | 0.0 | 0.0 | 0.00 | 0.00 | 0.00 | 37 | 1002.1 |
| 20260506142109 | 21 | 0 | 0.0 | 0.0 | 0.00 | 0.00 | 0.00 | 39 | 1002.1 |
| 20260506141911 | 21 | 68 | 0.0 | 0.0 | 0.00 | 0.00 | 0.00 | 39 | 1002.1 |
| 20260506141712 | 21 | 338 | 0.0 | 0.0 | 0.00 | 0.00 | 0.00 | 39 | 1002.0 |
| 20260506141511 | 21 | 45 | 0.0 | 0.0 | 0.00 | 0.00 | 0.00 | 39 | 1002.1 |
| 20260506141306 | 21 | 45 | 0.0 | 0.0 | 0.00 | 0.00 | 0.00 | 40 | 1002.0 |
| 20260506141105 | 21 | 45 | 0.0 | 0.0 | 0.00 | 0.00 | 0.00 | 40 | 1002.0 |
| 20260506140916 | 21 | 45 | 0.0 | 0.0 | 0.00 | 0.00 | 0.00 | 40 | 1002.1 |
| 20260506140813 | 21 | 45 | 0.0 | 0.0 | 0.00 | 0.00 | 0.00 | 40 | 1002.1 |
| 20260506140608 | 21 | 0 | 4.8 | 0.0 | 0.00 | 0.00 | 0.00 | 41 | 1002.0 |
| 20260506140412 | 21 | 45 | 0.0 | 0.0 | 0.00 | 0.00 | 0.00 | 40 | 1002.0 |
| 20260506140207 | 21 | 45 | 0.0 | 0.0 | 0.00 | 0.00 | 0.00 | 40 | 1002.0 |
| 20260506140011 | 21 | 22 | 0.0 | 0.0 | 0.00 | 0.00 | 0.00 | 39 | 1002.0 |
| 20260506135809 | 21 | 22 | 0.0 | 0.0 | 0.00 | 0.00 | 0.00 | 39 | 1002.0 |
| 20260506135606 | 21 | 225 | 0.0 | 0.0 | 0.00 | 0.00 | 0.00 | 39 | 1002.1 |
| 20260506135510 | 21 | 225 | 0.0 | 0.0 | 0.00 | 0.00 | 0.00 | 39 | 1002.1 |
| 20260506135309 | 21 | 225 | 0.0 | 0.0 | 0.00 | 0.00 | 0.00 | 39 | 1002.1 |
| 20260506135107 | 21 | 270 | 0.0 | 0.0 | 0.00 | 0.00 | 0.00 | 39 | 1002.1 |
| 20260506134915 | 21 | 180 | 0.0 | 0.0 | 0.00 | 0.00 | 0.00 | 40 | 1002.2 |
| 20260506134707 | 21 | 68 | 91.7 | 0.0 | 0.00 | 0.00 | 0.00 | 39 | 1002.1 |
| 20260506134407 | 21 | 338 | 0.0 | 0.0 | 0.00 | 0.00 | 0.00 | 37 | 1002.2 |
| 20260506134209 | 21 | 315 | 6.4 | 0.0 | 0.00 | 0.00 | 0.00 | 37 | 1002.2 |
| 20260506134008 | 20 | 315 | 6.4 | 0.0 | 0.00 | 0.00 | 0.00 | 37 | 1002.4 |
| 20260506133808 | 20 | 292 | 0.0 | 0.0 | 0.00 | 0.00 | 0.00 | 37 | 1002.3 |
| 20260506133608 | 20 | 45 | 0.0 | 0.0 | 0.00 | 0.00 | 0.00 | 37 | 1002.5 |
| 20260506133406 | 20 | 68 | 0.0 | 0.0 | 0.00 | 0.00 | 0.00 | 37 | 1002.5 |
| 20260506133210 | 20 | 135 | 0.0 | 0.0 | 0.00 | 0.00 | 0.00 | 37 | 1002.5 |
| 20260506133012 | 20 | 338 | 0.0 | 0.0 | 0.00 | 0.00 | 0.00 | 36 | 1002.5 |
| 20260506132810 | 20 | 292 | 0.0 | 0.0 | 0.00 | 0.00 | 0.00 | 36 | 1002.5 |
| 20260506132613 | 20 | 292 | 0.0 | 0.0 | 0.00 | 0.00 | 0.00 | 36 | 1002.6 |
| 20260506132308 | 21 | 270 | 0.0 | 0.0 | 0.00 | 0.00 | 0.00 | 36 | 1002.5 |
| 20260506132112 | 21 | 248 | 0.0 | 0.0 | 0.00 | 0.00 | 0.00 | 36 | 1002.5 |
| 20260506131907 | 21 | 270 | 0.0 | 0.0 | 0.00 | 0.00 | 0.00 | 35 | 1002.5 |
| 20260506131712 | 21 | 22 | 0.0 | 0.0 | 0.00 | 0.00 | 0.00 | 35 | 1002.5 |
| 20260506131512 | 21 | 22 | 0.0 | 0.0 | 0.00 | 0.00 | 0.00 | 35 | 1002.5 |
| 20260506131308 | 21 | 22 | 0.0 | 0.0 | 0.00 | 0.00 | 0.00 | 36 | 1002.4 |
| 20260506131014 | 21 | 22 | 0.0 | 0.0 | 0.00 | 0.00 | 0.00 | 36 | 1002.4 |
| 20260506130811 | 21 | 158 | 0.0 | 0.0 | 0.00 | 0.00 | 0.00 | 36 | 1002.5 |
| 20260506130610 | 21 | 45 | 0.0 | 0.0 | 0.00 | 0.00 | 0.00 | 36 | 1002.5 |
| 20260506130413 | 21 | 45 | 0.0 | 0.0 | 0.00 | 0.00 | 0.00 | 36 | 1002.6 |
| 20260506130208 | 21 | 45 | 0.0 | 0.0 | 0.00 | 0.00 | 0.00 | 36 | 1002.5 |
| 20260506130011 | 20 | 292 | 0.0 | 0.0 | 0.00 | 0.00 | 0.00 | 37 | 1002.5 |
| 20260506125708 | 20 | 225 | 0.0 | 0.0 | 0.00 | 0.00 | 0.00 | 36 | 1002.4 |
| 20260506125508 | 20 | 225 | 0.0 | 0.0 | 0.00 | 0.00 | 0.00 | 36 | 1002.2 |
| 20260506125312 | 20 | 315 | 0.0 | 0.0 | 0.00 | 0.00 | 0.00 | 36 | 1002.2 |
| 20260506125108 | 20 | 270 | 0.0 | 0.0 | 0.00 | 0.00 | 0.00 | 36 | 1002.2 |
| 20260506124908 | 20 | 292 | 0.0 | 0.0 | 0.00 | 0.00 | 0.00 | 36 | 1002.1 |
| 20260506124710 | 20 | 248 | 0.0 | 0.0 | 0.00 | 0.00 | 0.00 | 36 | 1002.1 |
| 20260506124515 | 20 | 292 | 3.2 | 0.0 | 0.00 | 0.00 | 0.00 | 38 | 1002.1 |
| 20260506124207 | 20 | 270 | 0.0 | 0.0 | 0.00 | 0.00 | 0.00 | 38 | 1002.2 |
| 20260506124011 | 20 | 270 | 0.0 | 0.0 | 0.00 | 0.00 | 0.00 | 38 | 1002.2 |
| 20260506123812 | 20 | 292 | 0.0 | 0.0 | 0.00 | 0.00 | 0.00 | 39 | 1002.3 |
| 20260506123618 | 20 | 292 | 0.0 | 0.0 | 0.00 | 0.00 | 0.00 | 40 | 1002.2 |
| 20260506123408 | 20 | 202 | 0.0 | 0.0 | 0.00 | 0.00 | 0.00 | 37 | 1002.3 |
| 20260506123208 | 20 | 292 | 0.0 | 0.0 | 0.00 | 0.00 | 0.00 | 37 | 1002.3 |
| 20260506122907 | 20 | 292 | 3.2 | 0.0 | 0.00 | 0.00 | 0.00 | 37 | 1002.2 |
| 20260506122709 | 20 | 248 | 0.0 | 0.0 | 0.00 | 0.00 | 0.00 | 37 | 1002.3 |
| 20260506122511 | 20 | 248 | 0.0 | 0.0 | 0.00 | 0.00 | 0.00 | 37 | 1002.2 |
| 20260506122306 | 20 | 270 | 0.0 | 0.0 | 0.00 | 0.00 | 0.00 | 37 | 1002.3 |
| 20260506122110 | 20 | 270 | 4.8 | 0.0 | 0.00 | 0.00 | 0.00 | 37 | 1002.4 |
| 20260506121908 | 20 | 270 | 12.9 | 0.0 | 0.00 | 0.00 | 0.00 | 37 | 1002.4 |
| 20260506121708 | 20 | 270 | 8.0 | 0.0 | 0.00 | 0.00 | 0.00 | 38 | 1002.4 |
| 20260506121508 | 20 | 248 | 6.4 | 0.0 | 0.00 | 0.00 | 0.00 | 38 | 1002.4 |
| 20260506121323 | 20 | 248 | 0.0 | 0.0 | 0.00 | 0.00 | 0.00 | 38 | 1002.5 |
| 20260506121108 | 20 | 315 | 0.0 | 0.0 | 0.00 | 0.00 | 0.00 | 38 | 1002.5 |
| 20260506120908 | 20 | 202 | 9.7 | 0.0 | 0.00 | 0.00 | 0.00 | 38 | 1002.5 |
| 20260506120705 | 20 | 270 | 0.0 | 0.0 | 0.00 | 0.00 | 0.00 | 39 | 1002.5 |
| 20260506120511 | 20 | 270 | 0.0 | 0.0 | 0.00 | 0.00 | 0.00 | 39 | 1002.5 |
| 20260506120311 | 20 | 270 | 0.0 | 0.0 | 0.00 | 0.00 | 0.00 | 39 | 1002.5 |
| 20260506120008 | 19 | 248 | 6.4 | 0.0 | 0.00 | 0.00 | 0.00 | 39 | 1002.6 |
| 20260506115809 | 19 | 248 | 6.4 | 0.0 | 0.00 | 0.00 | 0.00 | 39 | 1002.6 |
| 20260506115613 | 19 | 248 | 3.2 | 0.0 | 0.00 | 0.00 | 0.00 | 39 | 1002.6 |
| 20260506115409 | 19 | 270 | 0.0 | 0.0 | 0.00 | 0.00 | 0.00 | 39 | 1002.6 |
| 20260506115207 | 19 | 248 | 8.0 | 0.0 | 0.00 | 0.00 | 0.00 | 39 | 1002.7 |
| 20260506115008 | 19 | 315 | 9.7 | 0.0 | 0.00 | 0.00 | 0.00 | 39 | 1002.9 |
| 20260506114808 | 19 | 315 | 9.7 | 0.0 | 0.00 | 0.00 | 0.00 | 39 | 1002.9 |
| 20260506114609 | 19 | 292 | 0.0 | 0.0 | 0.00 | 0.00 | 0.00 | 39 | 1003.0 |
| 20260506114409 | 19 | 292 | 8.0 | 0.0 | 0.00 | 0.00 | 0.00 | 38 | 1003.2 |
| 20260506114207 | 20 | 315 | 16.1 | 0.0 | 0.00 | 0.00 | 0.00 | 37 | 1003.2 |
| 20260506114006 | 20 | 292 | 1.6 | 0.0 | 0.00 | 0.00 | 0.00 | 37 | 1003.2 |
| 20260506113809 | 20 | 270 | 9.7 | 0.0 | 0.00 | 0.00 | 0.00 | 36 | 1003.2 |
| 20260506113605 | 20 | 270 | 0.0 | 0.0 | 0.00 | 0.00 | 0.00 | 36 | 1003.2 |
| 20260506113405 | 20 | 248 | 3.2 | 0.0 | 0.00 | 0.00 | 0.00 | 36 | 1003.2 |
| 20260506113311 | 20 | 248 | 3.2 | 0.0 | 0.00 | 0.00 | 0.00 | 36 | 1003.2 |
| 20260506113107 | 20 | 248 | 3.2 | 0.0 | 0.00 | 0.00 | 0.00 | 36 | 1003.2 |
| 20260506112909 | 20 | 248 | 1.6 | 0.0 | 0.00 | 0.00 | 0.00 | 35 | 1003.2 |
| 20260506112710 | 21 | 292 | 22.5 | 0.0 | 0.00 | 0.00 | 0.00 | 35 | 1003.2 |
| 20260506112508 | 21 | 270 | 0.0 | 0.0 | 0.00 | 0.00 | 0.00 | 35 | 1003.2 |
| 20260506112306 | 21 | 248 | 6.4 | 0.0 | 0.00 | 0.00 | 0.00 | 34 | 1003.0 |
| 20260506112107 | 21 | 270 | 0.0 | 0.0 | 0.00 | 0.00 | 0.00 | 34 | 1003.1 |
| 20260506111907 | 22 | 248 | 0.0 | 0.0 | 0.00 | 0.00 | 0.00 | 34 | 1003.1 |
| 20260506111705 | 22 | 248 | 0.0 | 0.0 | 0.00 | 0.00 | 0.00 | 34 | 1003.1 |
| 20260506111511 | 22 | 248 | 0.0 | 0.0 | 0.00 | 0.00 | 0.00 | 34 | 1003.2 |
| 20260506111309 | 22 | 248 | 0.0 | 0.0 | 0.00 | 0.00 | 0.00 | 34 | 1003.3 |
| 20260506111110 | 22 | 248 | 4.8 | 0.0 | 0.00 | 0.00 | 0.00 | 35 | 1003.2 |
| 20260506110913 | 22 | 248 | 0.0 | 0.0 | 0.00 | 0.00 | 0.00 | 35 | 1003.2 |
| 20260506110716 | 22 | 0 | 0.0 | 0.0 | 0.00 | 0.00 | 0.00 | 34 | 1003.2 |
| 20260506110508 | 22 | 0 | 0.0 | 0.0 | 0.00 | 0.00 | 0.00 | 34 | 1003.2 |
| 20260506110219 | 22 | 0 | 0.0 | 0.0 | 0.00 | 0.00 | 0.00 | 34 | 1003.2 |
| 20260506105912 | 22 | 248 | 0.0 | 0.0 | 0.00 | 0.00 | 0.00 | 34 | 1003.3 |
| 20260506105713 | 22 | 45 | 0.0 | 0.0 | 0.00 | 0.00 | 0.00 | 35 | 1003.3 |
| 20260506105507 | 22 | 0 | 0.0 | 0.0 | 0.00 | 0.00 | 0.00 | 35 | 1003.4 |
| 20260506105308 | 21 | 45 | 0.0 | 0.0 | 0.00 | 0.00 | 0.00 | 35 | 1003.3 |
| 20260506105119 | 21 | 45 | 0.0 | 0.0 | 0.00 | 0.00 | 0.00 | 36 | 1003.3 |
| 20260506104912 | 21 | 248 | 0.0 | 0.0 | 0.00 | 0.00 | 0.00 | 36 | 1003.4 |
| 20260506104710 | 21 | 248 | 0.0 | 0.0 | 0.00 | 0.00 | 0.00 | 36 | 1003.3 |
| 20260506104512 | 21 | 248 | 0.0 | 0.0 | 0.00 | 0.00 | 0.00 | 36 | 1003.3 |
| 20260506104311 | 21 | 248 | 0.0 | 0.0 | 0.00 | 0.00 | 0.00 | 36 | 1003.4 |
| 20260506104109 | 21 | 292 | 0.0 | 0.0 | 0.00 | 0.00 | 0.00 | 36 | 1003.4 |
| 20260506103917 | 21 | 68 | 0.0 | 0.0 | 0.00 | 0.00 | 0.00 | 36 | 1003.5 |
| 20260506103711 | 21 | 68 | 8.0 | 0.0 | 0.00 | 0.00 | 0.00 | 36 | 1003.5 |
| 20260506103512 | 21 | 0 | 8.0 | 0.0 | 0.00 | 0.00 | 0.00 | 36 | 1003.7 |
| 20260506103312 | 21 | 0 | 8.0 | 0.0 | 0.00 | 0.00 | 0.00 | 36 | 1003.7 |
| 20260506103111 | 21 | 270 | 0.0 | 0.0 | 0.00 | 0.00 | 0.00 | 37 | 1003.8 |
| 20260506102908 | 21 | 0 | 0.0 | 0.0 | 0.00 | 0.00 | 0.00 | 37 | 1003.8 |
| 20260506102711 | 20 | 0 | 0.0 | 0.0 | 0.00 | 0.00 | 0.00 | 37 | 1003.9 |
| 20260506102510 | 20 | 112 | 0.0 | 0.0 | 0.00 | 0.00 | 0.00 | 37 | 1003.9 |
| 20260506102315 | 20 | 338 | 8.0 | 0.0 | 0.00 | 0.00 | 0.00 | 37 | 1003.9 |
| 20260506102108 | 20 | 0 | 6.4 | 0.0 | 0.00 | 0.00 | 0.00 | 37 | 1003.9 |
| 20260506101913 | 20 | 0 | 6.4 | 0.0 | 0.00 | 0.00 | 0.00 | 38 | 1003.9 |
| 20260506101711 | -1 | 338 | 0.0 | 0.0 | 0.00 | 0.00 | 0.00 | 38 | 1004.0 |
| 20260506101509 | 20 | 68 | 0.0 | 0.0 | 0.00 | 0.00 | 0.00 | 40 | 1004.0 |
| 20260506101306 | 20 | 68 | 0.0 | 0.0 | 0.00 | 0.00 | 0.00 | 40 | 1004.0 |
| 20260506101111 | 20 | 68 | 0.0 | 0.0 | 0.00 | 0.00 | 0.00 | 40 | 1004.0 |
| 20260506100911 | 20 | 68 | 0.0 | 0.0 | 0.00 | 0.00 | 0.00 | 40 | 1004.0 |
| 20260506100611 | 20 | 270 | 0.0 | 0.0 | 0.00 | 0.00 | 0.00 | 41 | 1004.1 |
| 20260506100411 | 18 | 270 | 0.0 | 0.0 | 0.00 | 0.00 | 0.00 | 41 | 1004.2 |
| 20260506100208 | 18 | 270 | 0.0 | 0.0 | 0.00 | 0.00 | 0.00 | 41 | 1004.3 |
| 20260506100007 | 18 | 270 | 0.0 | 0.0 | 0.00 | 0.00 | 0.00 | 41 | 1004.3 |
| 20260506095812 | 18 | 270 | 0.0 | 0.0 | 0.00 | 0.00 | 0.00 | 41 | 1004.4 |
| 20260506095608 | 18 | 270 | 0.0 | 0.0 | 0.00 | 0.00 | 0.00 | 41 | 1004.4 |
| 20260506095508 | 18 | 270 | 0.0 | 0.0 | 0.00 | 0.00 | 0.00 | 41 | 1004.4 |
| 20260506095312 | 18 | 270 | 0.0 | 0.0 | 0.00 | 0.00 | 0.00 | 41 | 1004.5 |
| 20260506095109 | 18 | 248 | 0.0 | 0.0 | 0.00 | 0.00 | 0.00 | 43 | 1004.6 |
| 20260506094910 | 18 | 225 | 0.0 | 0.0 | 0.00 | 0.00 | 0.00 | 42 | 1004.6 |
| 20260506094714 | 18 | 225 | 0.0 | 0.0 | 0.00 | 0.00 | 0.00 | 44 | 1004.5 |
| 20260506094508 | 18 | 225 | 0.0 | 0.0 | 0.00 | 0.00 | 0.00 | 44 | 1004.6 |
| 20260506094313 | 18 | 225 | 0.0 | 0.0 | 0.00 | 0.00 | 0.00 | 44 | 1004.6 |
| 20260506094010 | 18 | 225 | 0.0 | 0.0 | 0.00 | 0.00 | 0.00 | 44 | 1004.7 |
| 20260506093810 | 18 | 225 | 0.0 | 0.0 | 0.00 | 0.00 | 0.00 | 44 | 1004.8 |
| 20260506093608 | 18 | 315 | 12.9 | 0.0 | 0.00 | 0.00 | 0.00 | 44 | 1004.7 |
| 20260506093409 | 18 | 270 | 0.0 | 0.0 | 0.00 | 0.00 | 0.00 | 44 | 1004.9 |
| 20260506093209 | 18 | 315 | 6.4 | 0.0 | 0.00 | 0.00 | 0.00 | 44 | 1004.9 |
| 20260506093009 | 17 | 135 | 0.0 | 0.0 | 0.00 | 0.00 | 0.00 | 45 | 1005.0 |
| 20260506092809 | 17 | 135 | 0.0 | 0.0 | 0.00 | 0.00 | 0.00 | 47 | 1005.0 |
| 20260506092511 | 17 | 135 | 0.0 | 0.0 | 0.00 | 0.00 | 0.00 | 47 | 1005.2 |
| 20260506092312 | 17 | 135 | 0.0 | 0.0 | 0.00 | 0.00 | 0.00 | 46 | 1005.1 |
| 20260506092108 | 17 | 248 | 4.8 | 0.0 | 0.00 | 0.00 | 0.00 | 46 | 1005.1 |
| 20260506091911 | 16 | 248 | 4.8 | 0.0 | 0.00 | 0.00 | 0.00 | 47 | 1005.1 |
| 20260506091709 | 16 | 338 | 3.2 | 0.0 | 0.00 | 0.00 | 0.00 | 47 | 1005.1 |
| 20260506091514 | 16 | 135 | 0.0 | 0.0 | 0.00 | 0.00 | 0.00 | 47 | 1005.2 |
| 20260506091211 | 16 | 90 | 6.4 | 0.0 | 0.00 | 0.00 | 0.00 | 48 | 1005.1 |
| 20260506091010 | 16 | 22 | 14.5 | 0.0 | 0.00 | 0.00 | 0.00 | 48 | 1005.4 |
| 20260506090809 | 16 | 45 | 12.9 | 0.0 | 0.00 | 0.00 | 0.00 | 49 | 1005.1 |
| 20260506090610 | 16 | 0 | 3.2 | 0.0 | 0.00 | 0.00 | 0.00 | 49 | 1005.1 |
| 20260506090409 | 16 | 292 | 0.0 | 0.0 | 0.00 | 0.00 | 0.00 | 49 | 1005.0 |